星链-30076 (STARLINK-30076 )

导读

STARLINK-30076是美国太空探索技术公司(SpaceX)星链互联网卫星星座中的一颗卫星,于北京时间2023年6月4日发射升空,作为星链星座的组网卫星之一,它承担着为全球提供低延迟、高速率宽带互联网接入服务的任务,进一步扩展了星链星座的覆盖范围与服务能力。

基本信息
目录编号:
56839
目录名称:
STARLINK-30076
国际标识:
2023-079S
轨道中心:
EARTH
卫星名称:
星链-30076
卫星全名:
星链-30076 (STARLINK-30076 )
卫星状态:
在轨 (已飞行1110 天)
发射日期:
2023-06-04 UTC
国别 :
美国 (US)
星等 :
--
轨道信息
数据来源 国际轨道数据 AOE轨道数据
星历时间 2026-06-17T08:00:02+0800
1天前
查看轨道信息
2026-06-17T07:00:00+0800
1天前
查看轨道信息
半长轴 6861.205km 6861.155km
偏心率 0.0001967 0.000125
轨道倾角 43.002° 43.001°
近地点辐角 266.551° 239.813°
升交点赤经 266.180° 266.416°
平近点角 198.000° 355.215°
近地点 481.718km 482.16km
远地点 484.418km 483.876km
周期 94.267分钟 94.266分钟
每日圈数 15.275738 15.275906
详细信息
固有亮度:
5
最大亮度:
0.5
卫星平台:
Starlink v2.0 mini
覆盖范围:
全球
运营商:
太空探索技术公司
运营商所在国:
美国
制造商(研发单位):
太空探索技术公司
制造商所在国:
美国
使用方式:
暂无
卫星简介
星链(Starlink)计划是由太空探索技术公司(SpaceX)提出的一个巨型低轨卫星互联网星座项目,计划在2019年至2024年间在太空搭建由约1.2万颗卫星组成的“星链”网络,其中1584颗将部署在地球上空550千米处的近地轨道,并从2020年开始工作。该卫星仍在工作。
2D轨道图
3D轨道图
轨道高度分析图
轨道倾角分析图
轨道综合分析图
查看轨道综合分析图